Regional Weather Roundup
Issued by NWS

Home | Current Version | Previous Version | Graphics & Text | Print | Product List | Glossary On
Versions: 1 2 3 4 5 6 7 8 9 10 11 12 13 14 15 16 17 18 19 20 21 22 23 24 25 26 27 28 29 30 31 32 33 34 35 36 37 38 39 40 41 42 43 44 45 46 47 48 49 50
620
ASUS43 KLSX 270510
RWRMO

WEATHER SUMMARY FOR MISSOURI
NATIONAL WEATHER SERVICE SPRINGFIELD MO
1200 AM CDT MON MAR 27 2017

NOTE: "FAIR" INDICATES FEW OR NO CLOUDS BELOW 12,000 FEET WITH NO
       SIGNIFICANT WEATHER AND/OR OBSTRUCTIONS TO VISIBILITY.
       CURRENT SKY AND/OR WEATHER CONDITIONS ARE NOT AVAILABLE FOR
       CHILLICOTHE AND FARMINGTON.

MOZ001>031-035>038-043-044-053-054-270600-
...NORTHERN AND WESTERN MISSOURI...

CITY           SKY/WX    TMP DP  RH WIND       PRES   REMARKS
KANSAS CTY INT DRIZZLE   47  46  97 NE6       29.93R
KANSAS C DTWN  CLOUDY    50  46  86 NE9       29.90F
LEE`S SUMMIT   CLOUDY    49  46  90 NE10      29.90F
ST JOSEPH      CLOUDY    47  44  90 N8        29.92S
CHILLICOTHE      N/A     48  44  86 NE5       29.93F
KIRKSVILLE     CLOUDY    48  44  86 N3        29.94S

$$
MOZ066>068-077>081-088>096-101>105-270600-
...SOUTHWEST MISSOURI...

CITY           SKY/WX    TMP DP  RH WIND       PRES   REMARKS
SPRINGFIELD    RAIN      57  54  89 S12       29.91F
JOPLIN         CLOUDY    58  55  90 SE14G25   29.79R
BRANSON        TSTM      55  55 100 NW10      29.93R

$$
MOZ032>034-039>042-045>050-055>058-069>072-270600-
...CENTRAL MISSOURI...

CITY           SKY/WX    TMP DP  RH WIND       PRES   REMARKS
COLUMBIA       PTCLDY    50  49  96 NE9       29.92F
JEFFERSON CITY MOCLDY    53  48  83 SE5       29.93F
ROLLA          MOCLDY    53  49  86 CALM      29.93R
SEDALIA        CLOUDY    52  49  89 NE6       29.92F
WHITEMAN AFB   LGT RAIN  50  50 100 NE3       29.92R
WARRENSBURG    RAIN      50  45  81 N8        29.92R
OSAGE BEACH    LGT RAIN N/A N/A N/A E5        29.93S

$$
MOZ051-052-059>065-270600-
...EAST CENTRAL MISSOURI...

CITY           SKY/WX    TMP DP  RH WIND       PRES   REMARKS
ST LOUIS INTL  CLOUDY    52  47  83 NE3       29.94R
SPIRIT OF STL  PTCLDY    49  49 100 CALM      29.93S
ST CHARLES     PTCLDY    50  49  96 NE3       29.93S

$$
MOZ072>076-082>087-097>100-106>115-270600-
...SOUTH CENTRAL AND SOUTHEAST MISSOURI...

CITY           SKY/WX    TMP DP  RH WIND       PRES   REMARKS
CAPE GIRARDEAU PTCLDY    52  47  83 E3        29.95R
FARMINGTON     PTCLDY    52  47  83 CALM      29.94S
POPLAR BLUFF   CLOUDY    56  53  90 CALM      29.94R
WEST PLAINS    MOCLDY    58  49  72 SE5       29.93R

$$




USA.gov is the U.S. government's official web portal to all federal, state and local government web resources and services.